Szeged, Hungary

6:42 AM CEST on August 27, 2016 (GMT +0200)
Szeged

Weather History for LHUD - May, 2013

Change the Weather History Date:

Wednesday, May 15, 2013

  Actual Average (LRAR) Record (LRAR)
Temperature  
Mean Temperature 60 °F -  
Max Temperature 71 °F 75 °F 87 °F (2007)
Min Temperature 48 °F 54 °F 41 °F (1998)
Degree Days  
Heating Degree Days 6    
Growing Degree Days 10 (Base 50)    
Moisture  
Dew Point 51 °F    
Average Humidity 71    
Maximum Humidity 100    
Minimum Humidity 43    
Precipitation  
Precipitation 0.00 in 0.08 in - ()
Sea Level Pressure  
Sea Level Pressure 29.86 in    
Wind  
Wind Speed 3 mph ()    
Max Wind Speed 8 mph    
Max Gust Speed -    
Visibility 4.7 miles    
Events Fog    
Averages and records for this station are not official NWS values.
T = Trace of Precipitation, MM = Missing Value Source: Averaged Metar Reports

Daily Weather History Graph

Daily Weather History Graph

Search for Another Location

Airport or City:

Trip Planner

Search our weather history database for the weather conditions in past years. The results will help you decide how hot, cold, wet, or windy it might be!

Date:

Astronomy

May. 15, 2013 Rise Set
Actual Time 5:06 AM CEST 8:05 PM CEST
Civil Twilight 4:31 AM CEST 8:41 PM CEST
Nautical Twilight 3:46 AM CEST 9:26 PM CEST
Astronomical Twilight 2:51 AM CEST 10:21 PM CEST
Moon 9:27 AM CEST (5/15) No Moon Set
Length of Visible Light 16h 09m
Length of Day
14h 59m
Waxing Crescent, 24% of the Moon is Illuminated
May 15
Waxing Crescent
May 18
First Quarter
May 25
Full
May 31
Last Quarter
Jun 8
New

Hourly Weather History & Observations

Time (CEST) Temp. Dew Point Humidity Pressure Visibility Wind Dir Wind Speed Gust Speed Precip Events Conditions
12:45 AM 55.4 °F 53.6 °F 94% 29.89 in 6.2 mi West 2.3 mph - N/A   Mostly Cloudy
1:45 AM 55.4 °F 53.6 °F 94% 29.89 in 6.2 mi WNW 2.3 mph - N/A   Mostly Cloudy
2:00 AM 54 °F 54 °F 98% 29.90 in 7 mi WNW 2.2 mph - -   Partly Cloudy
2:45 AM 55.4 °F 53.6 °F 94% 29.89 in 6.2 mi NNW 2.3 mph - N/A   Mostly Cloudy
3:45 AM 53.6 °F 51.8 °F 94% 29.89 in - NNW 3.5 mph - N/A   Clear
4:45 AM 50.0 °F 50.0 °F 100% 29.86 in 2.5 mi North 1.2 mph - N/A Fog Fog
5:20 AM 50.0 °F 48.2 °F 94% 29.89 in 0.1 mi Calm Calm - N/A Fog Fog
5:45 AM 48.2 °F 48.2 °F 100% 29.89 in 0.1 mi Calm Calm - N/A Fog Fog
6:33 AM 51.8 °F 51.8 °F 100% 29.89 in 0.2 mi ENE 6.9 mph - N/A Fog Fog
6:45 AM 51.8 °F 51.8 °F 100% 29.89 in 0.5 mi ENE 5.8 mph - N/A Fog Fog
7:15 AM 51.8 °F 51.8 °F 100% 29.89 in 0.9 mi NE 3.5 mph - N/A   Mostly Cloudy
7:45 AM 53.6 °F 53.6 °F 100% 29.89 in 1.6 mi NE 3.5 mph - N/A   Mostly Cloudy
8:00 AM 53 °F 53 °F 99% 29.89 in 2 mi NE 4.5 mph - - Fog Light Fog
8:15 AM 55.4 °F 53.6 °F 94% 29.89 in 3.1 mi North 3.5 mph - N/A   Scattered Clouds
8:45 AM 57.2 °F 53.6 °F 88% 29.89 in 6.2 mi North 3.5 mph - N/A   Mostly Cloudy
9:15 AM 59.0 °F 51.8 °F 77% 29.89 in 6.2 mi North 3.5 mph - N/A   Scattered Clouds
9:45 AM 60.8 °F 53.6 °F 77% 29.89 in 6.2 mi NNE 2.3 mph - N/A   Scattered Clouds
10:15 AM 60.8 °F 50.0 °F 68% 29.89 in 6.2 mi ENE 4.6 mph - N/A   Partly Cloudy
10:45 AM 62.6 °F 50.0 °F 63% 29.89 in 6.2 mi ESE 4.6 mph - N/A   Scattered Clouds
11:15 AM 64.4 °F 50.0 °F 59% 29.89 in 6.2 mi ESE 2.3 mph - N/A   Scattered Clouds
11:45 AM 64.4 °F 50.0 °F 59% 29.89 in 6.2 mi South 3.5 mph - N/A   Scattered Clouds
12:15 PM 64.4 °F 50.0 °F 59% 29.89 in 6.2 mi South 4.6 mph - N/A   Partly Cloudy
12:45 PM 66.2 °F 50.0 °F 56% 29.86 in 6.2 mi SW 4.6 mph - N/A   Partly Cloudy
1:15 PM 68.0 °F 50.0 °F 52% 29.86 in 6.2 mi South 4.6 mph - N/A   Partly Cloudy
1:45 PM 68.0 °F 51.8 °F 56% 29.86 in 6.2 mi SSW 5.8 mph - N/A   Partly Cloudy
2:00 PM 68 °F 52 °F 45% 29.84 in 37 mi SSW 6.7 mph - -   Partly Cloudy
2:15 PM 69.8 °F 50.0 °F 49% 29.86 in 6.2 mi SSW 5.8 mph - N/A   Scattered Clouds
2:45 PM 69.8 °F 50.0 °F 49% 29.83 in 6.2 mi WSW 2.3 mph - N/A   Scattered Clouds
3:15 PM 69.8 °F 50.0 °F 49% 29.83 in 6.2 mi WSW 3.5 mph - N/A   Scattered Clouds
4:15 PM 69.8 °F 48.2 °F 46% 29.83 in 6.2 mi South 2.3 mph - N/A   Partly Cloudy
4:45 PM 69.8 °F 48.2 °F 46% 29.83 in 6.2 mi SE 3.5 mph - N/A   Partly Cloudy
5:45 PM 69.8 °F 50.0 °F 49% 29.83 in - NE 1.2 mph - N/A   Clear
6:15 PM 71.6 °F 48.2 °F 43% 29.80 in - NNW 3.5 mph - N/A   Clear
6:45 PM 69.8 °F 48.2 °F 46% 29.80 in - ENE 2.3 mph - N/A   Clear
7:15 PM 69.8 °F 48.2 °F 46% 29.80 in - SE 2.3 mph - N/A   Clear
7:45 PM 68.0 °F 50.0 °F 52% 29.80 in - ESE 2.3 mph - N/A   Clear
8:00 PM 67 °F 49 °F 43% 29.80 in 31 mi ESE 2.2 mph - -   Partly Cloudy
8:15 PM 64.4 °F 50.0 °F 59% 29.80 in - SE 2.3 mph - N/A   Clear
8:45 PM 60.8 °F 50.0 °F 68% 29.83 in - SSW 2.3 mph - N/A   Clear
9:15 PM 60.8 °F 51.8 °F 72% 29.83 in - South 2.3 mph - N/A   Clear
9:45 PM 59.0 °F 51.8 °F 77% 29.83 in - ESE 4.6 mph - N/A   Clear
10:45 PM 59.0 °F 50.0 °F 72% 29.83 in - East 6.9 mph - N/A   Clear
11:45 PM 59.0 °F 50.0 °F 72% 29.83 in - East 8.1 mph - N/A   Clear